• Join FlightAware (Why Join?)
  • Login
  • US Flag GB Flag 
05:04 EDT


 

Airport Tracker/Info


-or-


 

Live Flight TrackerFlight Track Log ✈ SKW4552 ✈ 15-Feb-2014 ✈ KMSO - KSLC

Flight Track Log - Related Links

Times and Time Zones

All times are in EST time to prevent confusion due to time zone crossing. See the SKW4552 flight status page for this flight to view local times or setup timezone preferences in your user account.

Time Position Orientation Groundspeed Altitude Reporting Facility
EST Latitude Longitude Course Direction KTS MPH feet Rate Location/Type
08:37 46.9067 -114.0758 180° South 197 227 3,800  Level Salt Lake Center
08:38 46.2996 -113.8564 180° South  Level Estimated
08:38 46.8581 -114.0708 176° South 186 214 5,900  Level Salt Lake Center
08:39 46.2099 -113.8228 180° South  Level Estimated
08:39 46.7936 -114.0622 175° South 212 244 9,100  Level Salt Lake Center
08:40 46.1201 -113.7893 180° South  Level Estimated
08:40 46.7283 -114.0486 172° South 233 268 11,400  Level Salt Lake Center
08:41 46.0303 -113.7559 180° South  Level Estimated
08:41 46.6542 -114.0336 172° South 263 303 13,700  Level Salt Lake Center
08:42 45.9728 -113.8607 232° Southwest  Level FlightAware Approximate
08:42 46.5744 -114.0228 175° South 284 327 15,800  Level Salt Lake Center
08:43 45.8834 -113.8252 180° South  Level Estimated
08:43 46.5031 -114.0750 207° Southwest 283 326 17,800  Level Salt Lake Center
08:44 46.4189 -114.0842 184° South 308 354 19,700 1,620 Climbing Salt Lake Center
08:45 46.3461 -114.0833 180° South 315 362 21,100 1,500 Climbing Salt Lake Center
08:46 46.2567 -114.0819 179° South 320 368 22,800 1,440 Climbing Salt Lake Center
08:47 46.1667 -114.0822 180° South 324 373 24,100 1,380 Climbing Salt Lake Center
08:48 46.0556 -114.0825 180° South 332 382 25,600 1,380 Climbing Salt Lake Center
08:49 45.9611 -114.0828 180° South 338 389 26,900 1,140 Climbing Salt Lake Center
08:50 45.8639 -114.0825 180° South 345 397 27,900 900 Climbing Salt Lake Center
08:51 45.7658 -114.0847 181° South 352 405 28,800 720 Climbing Salt Lake Center
08:52 45.6656 -114.0831 179° South 359 413 29,400 600 Climbing Salt Lake Center
08:53 45.5744 -114.0831 180° South 368 423 30,100 660 Climbing Salt Lake Center
08:54 45.4706 -114.0828 180° South 372 428 30,800 420 Climbing Salt Lake Center
08:55 45.3642 -114.0825 180° South 378 435 31,000 60 Climbing Salt Lake Center
08:56 45.2314 -114.0844 181° South 396 456 31,000  Level Salt Lake Center
08:57 45.1192 -114.0833 180° South 402 463 31,000  Level Salt Lake Center
08:58 45.0078 -114.0750 177° South 403 464 31,000 -960 Level Salt Lake Center
08:59 44.8983 -113.9978 153° Southeast 434 499 29,100 -1,020 Descending Salt Lake Center
09:00 44.7975 -113.9303 155° Southeast 427 491 29,000 -60 Descending Salt Lake Center
09:01 44.6992 -113.8628 154° Southeast 416 479 29,000  Level Salt Lake Center
09:02 44.5844 -113.7825 154° Southeast 414 476 29,000  Level Salt Lake Center
09:03 44.4842 -113.7164 155° Southeast 415 478 29,000  Level Salt Lake Center
09:04 44.3847 -113.6486 154° Southeast 415 478 29,000  Level Salt Lake Center
09:05 44.2703 -113.5714 154° Southeast 412 474 29,000  Level Salt Lake Center
09:06 44.1722 -113.5042 154° Southeast 411 473 29,000  Level Salt Lake Center
09:07 44.0683 -113.4358 155° Southeast 422 486 29,000  Level Salt Lake Center
09:08 43.9675 -113.3686 154° Southeast 422 486 29,000  Level Salt Lake Center
09:09 43.8506 -113.2914 155° Southeast 419 482 29,000  Level Salt Lake Center
09:11 43.7503 -113.2247 154° Southeast 419 482 29,000  Level Salt Lake Center
09:12 43.6497 -113.1583 154° Southeast 419 482 29,000  Level Salt Lake Center
09:13 43.5300 -113.1097 164° South 404 465 29,000  Level Salt Lake Center
09:14 43.4286 -113.0753 166° South 396 456 29,000  Level Salt Lake Center
09:15 43.3261 -113.0428 167° South 394 453 29,000  Level Salt Lake Center
09:16 43.2067 -113.0047 167° South 394 453 29,000  Level Salt Lake Center
09:17 43.1039 -112.9722 167° South 396 456 29,000  Level Salt Lake Center
09:18 43.0014 -112.9403 167° South 395 455 29,000  Level Salt Lake Center
09:19 42.8792 -112.9025 167° South 401 461 29,000  Level Salt Lake Center
09:20 42.7761 -112.8697 167° South 398 458 29,000  Level Salt Lake Center
09:21 42.6628 -112.8342 167° South 402 463 29,000  Level Salt Lake Center
09:22 42.5533 -112.8000 167° South 405 466 29,000  Level Salt Lake Center
09:23 42.4433 -112.7669 167° South 405 466 29,000  Level Salt Lake Center
09:24 42.3350 -112.7319 167° South 403 464 29,000  Level Salt Lake Center
09:25 42.2247 -112.6997 168° South 406 467 29,000  Level Salt Lake Center
09:26 42.1147 -112.6647 167° South 408 470 29,000 -1,080 Level Salt Lake Center
09:27 41.9981 -112.6308 168° South 405 466 26,900 -2,640 Descending Salt Lake Center
09:28 41.8897 -112.5978 167° South 419 482 23,700 -3,300 Descending Salt Lake Center
09:29 41.7708 -112.5625 168° South 435 501 20,300 -3,720 Descending Salt Lake Center
09:29 41.6847 -112.5292 164° South 428 493 17,600 -3,300 Descending Salt Lake Center
09:30 41.6561 -112.5286 179° South 425 489 17,000 -1,440 Descending Salt Lake Center
09:31 41.5572 -112.4917 164° South 366 421 15,900 -1,140 Descending Salt Lake Center
09:31 41.5347 -112.4869 171° South 369 425 15,900 -1,380 Level Salt Lake Center
09:32 41.4475 -112.4056 145° Southeast 389 448 14,300 -1,620 Descending Salt Lake Center
09:33 41.3842 -112.3383 141° Southeast 377 434 13,000 -1,620 Descending Salt Lake Center
09:33 41.3650 -112.3242 151° Southeast 373 429 12,700 -1,620 Descending Salt Lake Center
09:34 41.2864 -112.2450 143° Southeast 358 412 11,100 -1,560 Descending Salt Lake Center
09:34 41.2856 -112.2403 103° East 353 406 11,100 -1,140 Level Salt Lake Center
09:35 41.2128 -112.1719 145° Southeast 336 387 10,000 -1,140 Descending Salt Lake Center
09:35 41.2117 -112.1686 114° Southeast 330 380 10,000  Level Salt Lake Center
09:36 41.1394 -112.0983 144° Southeast 332 382 10,000  Level Salt Lake Center
09:36 41.1394 -112.0961 90° East 333 383 10,000 -360 Level Salt Lake Center
09:37 41.0728 -112.0306 143° Southeast 295 339 9,700 -300 Descending Salt Lake Center
09:37 41.0714 -112.0303 171° South 309 356 9,700 -1,920 Level Salt Lake Center
09:38 41.0019 -111.9981 161° South 270 311 7,800 -1,980 Descending Salt Lake Center
09:38 41.0017 -111.9978 143° Southeast 286 329 7,700 -1,200 Descending Salt Lake Center
09:39 40.9294 -111.9914 176° South 256 295 6,600 -1,200 Descending Salt Lake Center
09:39 40.9289 -111.9914 180° South 266 306 6,500 -1,020 Descending Salt Lake Center
09:40 40.8719 -111.9847 175° South 211 243 5,500 -960 Descending Salt Lake Center
09:41 40.8369 -111.9803 175° South 145 167 4,900 -840 Descending Salt Lake Center
09:41 40.8308 -111.9792 172° South 154 177 4,700 -720 Descending Salt Lake Center